SCP
0 0 0 0 0 0 0 0 0 0 0 0 0 0 0 0 0 0 0 0 0 0 0 0 0 0 0 0 0 0 0 0 0 0 0 0 0 0 0 0 0 0 0
0 0 0 0 0 0 0 0 0 0 0 0 0 0 0 0 0 0 0 0 0 0 0 0 0 0 0 0 0 0 0 0 0 0 0 0 0 0 0 0 0 0 0
0 0 0 0 0 0 0 0 0 0 -0 -0 0 0 0 -0 0 0 0 0 0 0 0 0 0 0 0 0 0 0 0 0 0 0 0 0 0 0 0 0 0 0 0
0 0 0 0 0 0 0 0 0 0 -0 -0 0 0 0 0 0 0 0 0 0 0 0 0 0 0 0 0 0 0 0 0 0 0 0 0 0 0 0 0 0 0 0
0 0 0 0 0 0 0 0 0 0 0 -0 0 0 0 0 0 0 0 0 0 0 0 0 0 0 0 0 0 0 0 0 0 0 0 0 0 0 0 0 0 0 0
0 0 0 0 0 0 0 0 0 0 0 0 0 0 0 0 0 -0 0 0 0 0 0 0 0 0 0 0 0 0 0 0 0 0 0 0 0 0 0 0 0 0 0
0 0 0 0 0 0 0 0 0 0 0 0 0 0 0 0 0 -0 -0 0 0 0 0 0 0 0 0 0 0 0 0 0 0 0 0 0 0 0 0 0 0 0 0
0 0 0 0 0 0 0 0 0 0 0 0 0 0 0 0 0 -0 -0 -0 0 0 0 0 0 0 0 0 0 0 0 0 0 0 0 0 0 0 0 0 0 0 0
0 0 0 0 0 0 0 0 0 0 0 -0 0 0 0 0 0 0 0 0 0 0 0 0 0 0 0 0 0 0 0 0 0 0 0 0 0 0 0 0 0 0 0
0 0 0 0 0 0 0 0 0 0 0 0 0 0 0 0 0 0 0 0 0 0 0 0 0 0 0 0 0 0 0 0 0 0 0 0 0 0 0 0 0 0 0
0 0 0 0 0 0 0 0 0 0 0 0 0 0 0 0 0 0 0 0 0 -0 -0 -0 0 0 0 0 0 0 0 0 0 0 0 0 0 0 0 0 0 0 0
0 0 0 0 0 0 0 0 0 0 0 0 0 0 0 0 0 0 0 0 0 -0 -0 -0 0 0 0 0 0 0 0 0 0 0 0 0 0 0 0 0 0 0 0
0 0 0 0 0 0 0 0 0 0 0 0 0 0 0 0 0 0 0 0 0 0 0 0 0 0 0 0 0 0 0 0 0 0 0 0 0 0 0 0 0 0 0
0 0 0 0 0 0 0 0 0 0 0 0 0 0 0 0 0 0 0 0 0 0 0 0 0 0 0 0 -0 0 0 0 0 0 0 0 0 0 0 0 0 0 0
0 0 0 0 0 0 0 0 -0 0 0 0 0 0 0 0 0 0 0 0 0 0 0 0 0 0 0 -0 -0 0 0 0 0 0 0 0 0 0 0 0 0 0 0
0 0 0 0 0 0 0 0 0 0 0 0 0 0 0 0 0 0 0 0 0 0 0 0 0 0 0 0 0 0 0 0 0 0 0 0 0 0 0 0 0 0 0
0 0 0 0 0 0 0 0 0 0 0 0 0 0 0 0 0 0 0 0 0 0 0 0 0 0 0 0 0 0 0 0 0 0 0 0 0 0 0 0 0 0 0
0 0 0 0 0 0 0 0 0 -0 -0 -0 -0 0 0 0 0 0 0 0 0 0 0 0 0 0 0 0 0 0 0 0 0 0 0 0 0 0 0 0 0 0 0
0 0 0 0 0 0 0 0 0 0 0 0 -0 0 0 0 0 0 0 0 0 0 0 0 0 0 0 0 0 0 0 0 0 0 0 0 0 0 0 0 0 0 0
0 0 0 0 0 0 0 0 0 0 0 0 0 0 0 0 0 -0 -0 -0 -0 0 0 0 0 0 0 0 0 0 0 0 0 0 0 0 0 0 0 0 0 0 0
0 0 0 0 0 0 0 0 0 0 0 0 0 0 0 0 0 -0 -0 -0 -0 0 0 0 0 0 0 0 0 0 0 0 0 0 0 0 0 0 0 0 0 0 0
0 0 0 0 0 0 0 0 0 0 0 0 0 0 0 0 0 -0 -0 -0 -0 0 0 0 0 0 0 0 0 0 0 0 0 0 0 0 0 0 0 0 0 0 0
0 0 -0 -0 -0 -0 -0 -0 0 0 0 0 0 0 0 0 0 0 0 0 0 0 0 0 0 0 0 0 0 0 0 0 0 0 0 0 0 0 0 0 0 0 0
-0 -0 -0 -0 -0 -0 -0 -0 0 0 0 0 0 0 0 0 0 0 0 0 0 0 0 0 0 0 0 0 0 0 0 0 0 0 0 0 0 0 0 0 0 0 0
0 0 0 0 0 0 0 0 0 0 0 0 0 0 0 0 0 0 0 0 0 0 0 0 0 0 0 0 0 0 0 0 0 0 0 0 0 0 0 0 0 0 0
0 0 0 0 0 0 0 0 0 0 0 0 0 0 0 0 0 0 0 0 0 0 0 0 0 0 0 0 0 0 0 0 0 0 0 0 0 0 0 0 0 0 0
Wind_Speed
8 7 8 8 8 8 8 8 7 7 7 7 7 7 8 8 7 7 7 7 8 7 7 8 7 6 6 5 5 5 4 4 4 0 1 1 1 2 3 3 3 2 3
7 7 8 8 8 8 8 7 7 7 7 7 7 8 8 8 7 7 8 8 8 8 7 8 7 7 7 6 5 6 4 3 4 2 1 2 2 2 2 3 3 2 2
6 7 7 7 7 7 7 7 7 7 7 7 8 8 8 7 7 7 7 7 7 6 6 7 6 7 7 5 6 5 4 4 3 3 1 2 2 2 3 3 3 3 3
6 6 6 6 6 6 6 6 6 6 7 8 8 8 8 8 7 7 7 7 6 6 6 6 5 6 5 5 5 4 4 4 4 3 2 2 2 2 3 3 4 3 3
5 5 5 4 5 6 6 6 6 7 8 7 7 7 7 7 7 7 6 6 6 6 5 5 4 6 6 4 3 3 3 3 3 3 2 2 2 3 2 2 2 3 3
5 4 4 5 5 5 5 6 6 6 6 7 7 7 7 6 8 10 7 5 5 5 4 4 4 6 7 7 6 4 3 3 2 2 1 1 1 1 1 1 2 3 3
4 4 4 4 5 4 6 6 5 5 6 6 6 6 6 6 9 9 8 5 4 4 4 3 4 5 6 5 6 7 5 3 4 4 2 2 2 2 1 2 1 1 3
4 4 4 5 5 5 5 5 4 4 5 4 5 5 5 6 9 9 8 6 5 4 4 4 4 4 5 5 5 5 5 4 1 2 3 4 4 4 3 2 2 2 4
5 5 4 5 5 5 5 4 3 3 4 3 3 4 5 5 8 9 8 5 5 5 4 3 3 3 6 7 5 5 5 5 4 4 4 6 7 6 4 1 0 2 2
4 4 4 5 5 5 4 3 2 3 3 3 3 3 4 4 7 9 7 4 4 3 3 3 4 3 5 5 3 3 4 4 6 7 6 5 4 3 4 4 3 2 1
5 5 5 4 4 4 3 2 3 3 4 4 4 3 3 4 6 8 8 4 3 2 2 2 3 5 6 5 2 0 2 4 3 4 4 4 4 3 2 2 4 4 3
5 5 4 3 3 3 3 3 3 4 4 3 3 3 3 4 5 7 9 6 4 2 1 2 4 7 7 7 4 4 5 4 2 3 3 3 3 3 4 4 3 5 6
4 4 3 4 4 3 3 3 3 3 3 2 2 2 2 3 4 9 9 9 7 3 2 5 7 7 6 5 6 7 5 3 2 2 3 3 3 4 3 4 4 3 3
4 3 3 4 4 4 4 3 3 3 3 3 3 2 1 2 3 3 4 4 6 5 4 6 7 7 5 5 5 4 3 1 1 1 2 3 3 3 3 2 3 3 3
4 3 3 4 4 4 4 3 3 1 2 4 3 3 3 1 1 1 1 2 2 3 3 3 4 4 4 4 4 4 3 3 3 2 2 3 3 4 3 3 2 2 2
3 3 3 3 3 3 4 3 5 3 4 5 5 4 2 2 1 2 3 4 5 3 3 3 3 2 2 2 3 3 3 3 3 2 2 2 3 3 3 3 2 2 2
4 3 2 2 3 3 3 3 1 3 3 2 2 2 2 1 1 3 5 6 5 3 2 1 1 1 1 2 2 1 2 2 2 2 3 3 3 3 3 3 3 3 3
3 3 3 2 3 3 3 3 3 2 0 2 2 3 3 3 4 4 5 5 4 3 1 0 1 1 1 1 2 2 2 3 3 3 3 3 3 3 3 4 4 4 3
3 2 2 2 2 3 3 3 3 3 2 2 2 3 4 4 5 4 1 1 0 1 1 1 1 0 1 1 1 2 2 2 2 2 3 4 4 3 4 4 5 6 4
2 4 4 3 2 2 2 2 2 3 3 2 3 3 2 0 1 2 0 1 1 1 1 0 0 1 1 1 1 2 2 2 3 3 3 3 4 3 4 5 5 5 4
2 2 3 2 2 3 3 3 3 3 3 3 4 4 5 2 2 2 2 2 2 2 2 1 1 1 1 1 1 2 2 2 2 2 3 3 4 4 4 4 5 5 4
2 2 2 2 2 2 3 3 3 3 4 4 3 3 4 2 2 2 2 3 3 3 3 3 2 2 2 2 2 2 1 1 2 3 3 4 4 4 4 5 5 5 4
2 2 2 2 2 3 3 2 3 3 3 4 4 3 2 2 3 3 4 3 3 3 2 3 3 2 1 2 2 2 2 1 2 2 3 4 4 4 4 5 6 6 5
2 3 4 3 3 3 3 3 3 3 4 4 4 4 4 4 4 4 4 3 3 3 3 3 4 4 5 3 2 2 2 2 2 2 3 3 4 4 4 5 5 6 5
2 3 4 4 4 4 4 4 3 3 4 4 4 4 4 4 4 4 4 4 4 4 5 4 3 4 6 6 5 3 3 3 3 3 3 3 4 5 5 5 4 5 4
2 3 4 4 4 4 4 4 4 4 4 4 4 4 4 4 5 4 4 4 4 4 4 4 5 6 6 5 5 5 4 3 3 4 3 3 4 4 4 4 5 4 5
Wind_Direction
62 68 75 74 73 72 73 72 71 68 64 62 61 62 64 64 65 71 71 70 70 63 61 66 60 56 57 49 55 65 69 94 111 6 301 300 329 315 322 319 297 285 282
66 70 73 72 72 71 68 67 69 68 65 65 63 60 63 62 62 69 75 71 73 71 65 64 56 61 54 48 54 58 61 73 107 98 349 349 339 320 325 333 339 336 300
70 70 72 70 70 69 67 65 70 73 70 67 67 63 60 59 60 64 72 73 73 72 71 71 64 64 57 51 56 54 52 60 76 94 34 358 347 354 3 351 351 346 323
75 74 75 75 77 78 74 70 71 74 72 69 67 63 60 57 54 57 66 68 66 64 67 71 68 71 70 62 58 52 59 59 59 69 50 13 359 346 24 5 348 338 329
85 80 78 77 77 78 76 72 71 74 78 74 70 61 56 54 49 56 60 67 66 63 61 62 66 70 69 65 70 63 71 71 68 68 50 25 3 2 353 332 339 324 318
96 93 87 83 82 82 82 79 78 74 73 74 70 67 58 53 53 61 68 66 67 72 73 62 58 45 38 39 42 58 106 115 113 100 75 42 299 291 308 332 346 2 324
108 106 99 94 93 91 94 84 82 79 80 77 74 73 63 43 48 53 61 73 70 73 79 71 57 39 32 26 25 35 38 56 155 152 167 223 238 242 260 322 311 265 257
116 113 109 102 95 88 85 83 82 81 85 85 80 77 65 39 41 50 64 67 66 68 79 87 76 34 21 31 43 39 28 18 34 191 214 233 237 231 208 222 250 288 290
107 110 110 106 102 96 93 90 87 88 84 88 91 84 68 33 36 53 68 67 69 62 62 71 74 48 26 45 52 34 15 354 352 346 276 261 261 252 215 175 344 33 336
120 118 114 114 112 110 108 94 82 94 98 96 85 78 75 47 38 56 72 76 74 58 35 28 34 34 27 44 52 38 13 334 337 342 346 339 323 305 221 190 183 173 240
114 107 103 107 114 114 99 86 94 93 89 86 81 63 57 48 39 53 70 81 87 70 30 354 333 346 358 10 28 24 297 306 317 331 335 337 340 336 309 237 202 187 199
100 98 96 101 110 106 95 83 88 98 95 93 81 52 27 26 35 44 58 69 90 76 6 319 308 326 338 345 348 326 341 5 11 6 0 343 333 320 305 293 252 225 219
95 93 91 87 74 81 93 97 85 88 100 110 107 87 30 18 21 36 46 51 55 54 329 321 329 336 342 343 343 348 360 24 24 15 348 313 291 289 306 322 326 320 295
111 102 94 88 74 66 69 84 94 97 106 114 123 123 83 31 18 15 19 22 21 14 351 341 355 15 25 5 354 3 18 30 78 335 305 307 321 339 345 342 335 340 346
119 111 98 97 101 86 69 64 89 81 160 146 154 154 144 133 292 52 56 14 354 341 346 5 17 16 14 8 5 7 12 19 19 355 355 352 348 347 335 332 335 343 343
122 124 122 122 118 115 106 66 42 68 81 109 141 145 151 175 195 20 12 359 353 5 50 30 9 9 9 3 3 356 356 354 347 352 359 355 346 339 330 329 338 335 314
146 150 140 143 147 150 145 134 105 13 28 53 119 148 163 205 308 355 357 353 3 52 66 26 350 337 341 350 352 343 329 323 335 359 2 351 341 337 339 336 337 333 322
153 162 161 172 171 170 169 170 165 164 219 308 304 267 261 277 304 333 2 18 15 27 60 211 266 288 333 353 350 344 340 349 3 8 5 359 355 347 343 337 330 323 312
159 173 177 176 172 174 174 170 178 186 202 236 287 303 283 290 308 317 5 92 338 331 332 309 272 273 8 16 10 12 21 22 15 13 10 3 356 352 340 330 326 327 325
180 186 168 160 163 171 178 180 187 195 206 217 233 248 270 357 323 320 314 201 203 226 247 60 76 111 85 57 44 43 44 32 15 11 356 349 343 342 333 327 326 323 311
179 191 181 156 180 188 187 191 192 191 199 211 231 235 201 190 225 239 236 216 199 198 187 158 144 128 106 93 81 72 66 25 2 349 341 334 334 330 324 322 321 321 316
176 185 188 193 196 192 191 193 191 195 202 208 228 244 211 192 208 216 216 216 211 206 190 168 169 181 175 161 152 137 98 348 334 334 329 324 324 323 324 327 330 328 323
175 189 194 199 194 190 190 201 195 196 203 206 207 212 208 207 212 212 215 216 209 205 193 175 174 192 196 175 166 165 182 237 264 285 307 315 319 321 320 319 322 327 325
190 196 191 193 193 192 202 213 213 207 202 202 204 208 214 214 214 215 215 213 206 205 197 189 191 195 188 183 185 187 202 222 239 259 280 290 302 306 311 315 317 320 321
195 200 202 200 197 201 209 218 220 214 204 202 203 208 215 215 218 221 218 213 207 207 209 200 196 195 194 193 194 205 222 234 243 253 262 270 286 296 304 309 314 320 325
214 214 212 210 206 204 204 211 214 211 209 210 209 209 211 212 215 216 211 208 208 210 211 208 207 203 201 201 203 206 219 242 265 279 271 269 288 299 311 308 319 324 327